Location: Nied?wied?
(53.3665°N, 14.8184°E)
Time: 22:27:23
(UTC+00:00)

Cosmos 2297 - Pass Details

Date: 03 March 2021
Orbit: 835 x 859 km, 71.0° (Epoch: 12 April)

Event Time Altitude Azimuth Distance (km) Brightness Sun altitude
Rises 19:59:26 0° 328° (NNW) 3,447 7.8 -29.0°
Reaches altitude 10° 20:01:58 10° 332° (NNW) 2,505 6.9 -29.4°
Enters shadow 20:06:41 50° 14° (NNE) 1,081 4.2 -29.9°
